• In Romania
  • List of Countries
  • For 7 days
  • Water Temperature
  • Satellite Maps
  • Weather Map
  • Weather Widgets
  • user-avatar
    Login

    Hourly Weather Ischgl

    Today, 30 April, Sunday

    Time Temperature Precipitation Wind Pressure Humidity
    00:00 -8°C° 0 mm 2 mps 569 mmHg 96%
    01:00 -8°C° 0 mm 2 mps 569 mmHg 95%
    02:00 -8°C° 0 mm 2 mps 569 mmHg 95%
    03:00 -8°C° 0 mm 2 mps 569 mmHg 95%
    04:00 -8°C° 0 mm 2 mps 569 mmHg 95%
    05:00 -7°C° 0 mm 2 mps 569 mmHg 93%
    06:00 -6°C° 0 mm 2 mps 570 mmHg 92%
    07:00 -5°C° 0 mm 2 mps 570 mmHg 90%
    08:00 -3°C° 0 mm 2 mps 571 mmHg 87%
    09:00 -1°C° 0 mm 2 mps 571 mmHg 83%
    10:00 +1°C° 0 mm 2 mps 572 mmHg 80%
    11:00 +2°C° 0 mm 2 mps 572 mmHg 78%
    12:00 +3°C° 0 mm 2 mps 572 mmHg 75%
    13:00 +4°C° 0 mm 2 mps 572 mmHg 72%
    14:00 +4°C° 0 mm 2 mps 571 mmHg 73%
    15:00 +4°C° 0 mm 2 mps 571 mmHg 73%
    16:00 +4°C° 0 mm 2 mps 571 mmHg 73%
    17:00 +2°C° 0 mm 2 mps 570 mmHg 79%
    18:00 -1°C° 0 mm 2 mps 569 mmHg 85%
    19:00 -2°C° 0 mm 2 mps 568 mmHg 91%
    20:00 -3°C° 0 mm 2 mps 568 mmHg 92%
    21:00 -4°C° 0 mm 2 mps 568 mmHg 92%
    22:00 -6°C° 0 mm 3 mps 568 mmHg 93%
    23:00 -6°C° 0 mm 3 mps 567 mmHg 92%

    Tomorrow, 1 May, Monday

    Time Temperature Precipitation Wind Pressure Humidity
    00:00 -6°C° 0 mm 3 mps 567 mmHg 91%
    01:00 -7°C° 0 mm 3 mps 567 mmHg 91%
    02:00 -7°C° 0 mm 3 mps 567 mmHg 91%
    03:00 -7°C° 0 mm 3 mps 567 mmHg 90%
    04:00 -7°C° 0 mm 2 mps 566 mmHg 90%
    05:00 -6°C° 0 mm 2 mps 567 mmHg 88%
    06:00 -4°C° 0 mm 2 mps 568 mmHg 86%
    07:00 -3°C° 0 mm 2 mps 569 mmHg 83%
    08:00 -3°C° 0.3 mm 2 mps 569 mmHg 83%
    09:00 -2°C° 0.3 mm 2 mps 570 mmHg 82%
    10:00 -1°C° 0.3 mm 2 mps 570 mmHg 82%
    11:00 -2°C° 1.8 mm 2 mps 570 mmHg 86%
    12:00 -3°C° 1.8 mm 2 mps 570 mmHg 91%
    13:00 -4°C° 1.8 mm 2 mps 569 mmHg 95%
    14:00 -4°C° 1.7 mm 2 mps 569 mmHg 95%
    15:00 -5°C° 1.7 mm 2 mps 569 mmHg 96%
    16:00 -5°C° 1.7 mm 2 mps 569 mmHg 97%
    17:00 -4°C° 1.4 mm 1 mps 569 mmHg 97%
    18:00 -4°C° 1.4 mm 1 mps 569 mmHg 97%
    19:00 -6°C° 1.4 mm 1 mps 569 mmHg 97%
    20:00 -7°C° 0.7 mm 1 mps 569 mmHg 97%
    21:00 -7°C° 0.7 mm 1 mps 569 mmHg 97%
    22:00 -8°C° 0.7 mm 1 mps 569 mmHg 97%
    23:00 -8°C° 0.2 mm 1 mps 569 mmHg 96%

    Day after tomorrow, 2 May, Tuesday

    Time Temperature Precipitation Wind Pressure Humidity
    00:00 -9°C° 0.2 mm 1 mps 569 mmHg 96%
    01:00 -9°C° 0.2 mm 1 mps 569 mmHg 96%
    02:00 -10°C° 0.1 mm 1 mps 568 mmHg 96%
    03:00 -11°C° 0.1 mm 1 mps 568 mmHg 96%
    04:00 -12°C° 0.1 mm 1 mps 567 mmHg 97%
    05:00 -10°C° 0 mm 1 mps 568 mmHg 95%
    06:00 -8°C° 0 mm 1 mps 569 mmHg 94%
    07:00 -6°C° 0 mm 1 mps 571 mmHg 93%
    08:00 -3°C° 0 mm 1 mps 571 mmHg 94%
    09:00 -2°C° 0 mm 1 mps 572 mmHg 94%
    10:00 0°C° 0 mm 1 mps 572 mmHg 94%
    11:00 0°C° 0 mm 1 mps 572 mmHg 93%
    12:00 +1°C° 0 mm 1 mps 573 mmHg 93%
    13:00 +2°C° 0 mm 1 mps 573 mmHg 92%
    14:00 +2°C° 0.2 mm 1 mps 573 mmHg 91%
    15:00 +2°C° 0.2 mm 1 mps 573 mmHg 91%
    16:00 +2°C° 0.2 mm 1 mps 573 mmHg 91%
    17:00 +1°C° 0.2 mm 1 mps 572 mmHg 92%
    18:00 -1°C° 0.2 mm 1 mps 572 mmHg 94%
    19:00 -2°C° 0.2 mm 1 mps 571 mmHg 95%
    20:00 -2°C° 0.1 mm 1 mps 571 mmHg 95%
    21:00 -3°C° 0.1 mm 1 mps 571 mmHg 95%
    22:00 -4°C° 0.1 mm 1 mps 571 mmHg 95%
    23:00 -4°C° 0.1 mm 1 mps 571 mmHg 95%

    3 May, Wednesday

    Time Temperature Precipitation Wind Pressure Humidity
    00:00 -4°C° 0.1 mm 1 mps 570 mmHg 95%
    01:00 -6°C° 0.1 mm 2 mps 570 mmHg 95%
    02:00 -4°C° 0.2 mm 1 mps 570 mmHg 95%
    03:00 -4°C° 0.2 mm 1 mps 570 mmHg 95%
    04:00 -4°C° 0.2 mm 1 mps 570 mmHg 95%
    05:00 -4°C° 0.7 mm 1 mps 570 mmHg 95%
    06:00 -3°C° 0.7 mm 1 mps 571 mmHg 95%
    07:00 -2°C° 0.7 mm 1 mps 571 mmHg 95%
    08:00 -2°C° 1.1 mm 1 mps 571 mmHg 95%
    09:00 -1°C° 1.1 mm 1 mps 572 mmHg 95%
    10:00 -1°C° 1.1 mm 1 mps 572 mmHg 95%
    11:00 0°C° 0.5 mm 1 mps 572 mmHg 93%
    12:00 +1°C° 0.5 mm 1 mps 573 mmHg 92%
    13:00 +2°C° 0.5 mm 1 mps 573 mmHg 90%
    14:00 +2°C° 0.6 mm 1 mps 573 mmHg 90%
    15:00 +2°C° 0.6 mm 1 mps 572 mmHg 90%
    16:00 +2°C° 0.6 mm 1 mps 572 mmHg 89%
    17:00 +1°C° 0.8 mm 1 mps 572 mmHg 92%
    18:00 0°C° 0.8 mm 1 mps 571 mmHg 94%
    19:00 -1°C° 0.8 mm 1 mps 571 mmHg 96%
    20:00 -2°C° 0.6 mm 1 mps 571 mmHg 97%
    21:00 -4°C° 0.6 mm 0 mps 570 mmHg 97%
    22:00 -5°C° 0.6 mm 0 mps 570 mmHg 98%
    23:00 -5°C° 0.2 mm 0 mps 569 mmHg 98%

    4 May, Thursday

    Time Temperature Precipitation Wind Pressure Humidity
    00:00 -6°C° 0.2 mm 0 mps 569 mmHg 98%
    01:00 -7°C° 0.2 mm 0 mps 568 mmHg 97%
    02:00 -8°C° 0.1 mm 0 mps 567 mmHg 97%
    03:00 -9°C° 0.1 mm 0 mps 566 mmHg 98%
    04:00 -10°C° 0.1 mm 0 mps 565 mmHg 98%
    05:00 -8°C° 0 mm 0 mps 567 mmHg 96%
    06:00 -5°C° 0 mm 0 mps 569 mmHg 94%
    07:00 -2°C° 0 mm 0 mps 570 mmHg 93%
    08:00 -1°C° 0.1 mm 0 mps 570 mmHg 91%
    09:00 +1°C° 0.1 mm 1 mps 571 mmHg 89%
    10:00 +2°C° 0.1 mm 1 mps 571 mmHg 87%
    11:00 +2°C° 0.6 mm 1 mps 571 mmHg 89%
    12:00 +2°C° 0.6 mm 1 mps 571 mmHg 90%
    13:00 +2°C° 0.6 mm 1 mps 570 mmHg 91%
    14:00 +2°C° 1.3 mm 1 mps 570 mmHg 91%
    15:00 +2°C° 1.3 mm 1 mps 570 mmHg 92%
    16:00 +2°C° 1.3 mm 1 mps 570 mmHg 93%
    17:00 +1°C° 2.1 mm 1 mps 570 mmHg 95%
    18:00 0°C° 2.1 mm 1 mps 569 mmHg 96%
    19:00 0°C° 2.1 mm 1 mps 569 mmHg 97%
    20:00 -1°C° 1.7 mm 1 mps 569 mmHg 98%
    21:00 -1°C° 1.7 mm 1 mps 570 mmHg 98%
    22:00 -2°C° 1.7 mm 1 mps 570 mmHg 98%
    23:00 -2°C° 0.9 mm 1 mps 570 mmHg 98%

    5 May, Friday

    Time Temperature Precipitation Wind Pressure Humidity
    00:00 -2°C° 0.9 mm 1 mps 570 mmHg 98%
    01:00 -3°C° 0.9 mm 1 mps 570 mmHg 97%
    02:00 -3°C° 0.1 mm 1 mps 570 mmHg 97%
    03:00 -4°C° 0.1 mm 1 mps 569 mmHg 97%
    04:00 -4°C° 0.1 mm 1 mps 569 mmHg 97%
    05:00 -3°C° 0 mm 1 mps 570 mmHg 96%
    06:00 -2°C° 0 mm 1 mps 571 mmHg 95%
    07:00 -1°C° 0 mm 1 mps 571 mmHg 95%
    08:00 0°C° 0 mm 1 mps 572 mmHg 92%
    09:00 +1°C° 0 mm 0 mps 572 mmHg 90%
    10:00 +2°C° 0 mm 0 mps 573 mmHg 87%
    11:00 +2°C° 0 mm 0 mps 573 mmHg 85%
    12:00 +3°C° 0 mm 0 mps 573 mmHg 83%
    13:00 +4°C° 0 mm 0 mps 574 mmHg 82%
    14:00 +4°C° 0 mm 0 mps 574 mmHg 82%
    15:00 +5°C° 0 mm 1 mps 573 mmHg 82%
    16:00 +5°C° 0 mm 1 mps 573 mmHg 82%
    17:00 +3°C° 0 mm 1 mps 573 mmHg 86%
    18:00 +2°C° 0 mm 1 mps 572 mmHg 90%
    19:00 0°C° 0 mm 1 mps 571 mmHg 94%
    20:00 -2°C° 0 mm 1 mps 571 mmHg 95%
    21:00 -3°C° 0 mm 1 mps 570 mmHg 95%
    22:00 -6°C° 0 mm 1 mps 569 mmHg 95%
    23:00 -6°C° 0 mm 1 mps 569 mmHg 93%
    Show more